This demonstration page uses our WeatherBlox Daily Observations layout. Learn more.

39.92423, -83.80882

Hourly Observations for May 11, 2019

Temp ( °F °C ) Dew Point ( °F °C ) Humidity (%) Winds ( mph kmh ) Pressure ( in mb ) Visibility ( mi km ) Precip ( " mm )
12:56 am 00:56 Cloudy 49 9.4 44 6.7 83 83 N 5 7 30.17 1022 10 16.0934 0 0
1:31 am 01:31 Partly Cloudy 48 9 41 5 76 76 N 6 9 30.17 1022 10 16.0934 0 0
1:56 am 01:56 Clear 47 8.3 41 5 80 80 Calm 30.16 1021 10 16.0934 0 0
2:56 am 02:56 Clear 45 7.2 42 5.6 90 90 Calm 30.12 1020 10 16.0934 0 0
3:56 am 03:56 Clear 42 5.6 41 5 96 96 Calm 30.12 1020 10 16.0934 0 0
4:56 am 04:56 Clear 42 5.6 41 5 96 96 N 3 6 30.12 1020 10 16.0934 0 0
5:56 am 05:56 Clear 42 5.6 41 5 96 96 Calm 30.12 1020 10 16.0934 0 0
6:56 am 06:56 Sunny 40 4.4 40 4.4 100 100 NE 6 9 30.11 1020 9 14.48406 0 0
7:56 am 07:56 Sunny 47 8.3 44 6.7 90 90 ENE 8 13 30.11 1020 10 16.0934 0 0
8:51 am 08:51 Mostly Cloudy 48 9 45 7 87 87 ENE 10 17 30.13 1020 10 16.0934 0 0
8:56 am 08:56 Mostly Cloudy 50 10 44 6.7 80 80 ENE 9 15 30.12 1020 10 16.0934 0 0
9:37 am 09:37 Cloudy 52 11 45 7 77 77 ENE 12 19 30.11 1020 10 16.0934 0 0
9:56 am 09:56 Cloudy 53 11.7 45 7.2 74 74 E 14 22 30.1 1019 10 16.0934 0 0
10:47 am 10:47 Cloudy 55 13 45 7 67 67 E 16 26 30.07 1018 10 16.0934 0 0
10:56 am 10:56 Cloudy 56 13.3 46 7.8 70 70 E 13 20 30.08 1019 10 16.0934 0 0
11:56 am 11:56 Mostly Cloudy 59 15 48 8.9 67 67 E 10 17 30.06 1018 10 16.0934 0 0
12:56 pm 12:56 Sunny 61 16.1 48 8.9 63 63 E 13 20 30.03 1017 10 16.0934 0 0
1:56 pm 13:56 Sunny 63 17.2 47 8.3 56 56 ENE 9 15 29.99 1016 10 16.0934 0 0
2:56 pm 14:56 Sunny 63 17.2 47 8.3 56 56 ENE 9 15 29.96 1015 10 16.0934 0 0
3:56 pm 15:56 Mostly Cloudy 64 17.8 48 8.9 56 56 E 14 22 29.93 1014 10 16.0934 0 0
4:56 pm 16:56 Cloudy 64 17.8 48 8.9 56 56 NE 10 17 29.92 1013 10 16.0934 0 0
5:56 pm 17:56 Partly Cloudy 63 17.2 47 8.3 56 56 NE 13 20 29.89 1012 10 16.0934 0 0
6:56 pm 18:56 Cloudy with Light Rain 61 16.1 48 8.9 63 63 NE 14 22 29.87 1012 10 16.0934 0 0.0254
7:56 pm 19:56 Cloudy 55 12.8 47 8.3 74 74 NNE 17 28 29.85 1011 10 16.0934 0 0.0254
8:56 pm 20:56 Cloudy 52 11.1 43 6.1 72 72 NE 17 28 29.85 1011 10 16.0934 0 0.0254
9:56 pm 21:56 Cloudy with Light Rain 48 8.9 45 7.2 89 89 NE 16 26 29.83 1010 10 16.0934 0 0.0254
10:56 pm 22:56 Cloudy with Rain 46 7.8 44 6.7 93 93 N 12 19 29.86 1011 8 12.87472 0.02 0.508
11:08 pm 23:08 Cloudy with Light Rain 46 8 45 7 93 93 N 10 17 29.87 1011 5 8.0467 0.01 0.254
11:24 pm 23:24 Cloudy with Rain 45 7 45 7 100 100 N 13 20 29.87 1012 8 12.87472 0.03 0.762
11:56 pm 23:56 Cloudy with Light Rain 44 6.7 44 6.7 100 100 NNE 12 19 29.85 1011 10 16.0934 0.04 1.016

Powered by AerisWeather